Regional Weather Roundup
Issued by NWS Albany, NY

Home | Current Version | Previous Version | Graphics & Text | Print | Product List | Glossary Off
Versions: 1 2 3 4 5 6 7 8 9 10 11 12 13 14 15 16 17 18 19 20 21 22 23 24 25 26 27 28 29 30 31 32 33 34 35 36 37 38 39 40 41 42 43 44 45 46 47 48 49 50

000
ASUS41 KALY 172210
RWRALY

NEW YORK STATE HOURLY WEATHER ROUNDUP
NATIONAL WEATHER SERVICE ALBANY NY
600 PM EDT WED SEP 17 2014

NOTE: "FAIR" INDICATES FEW OR NO CLOUDS BELOW 12,000 FEET WITH NO
SIGNIFICANT WEATHER AND/OR NO OBSTRUCTIONS TO VISIBILITY.

NYZ032-033-038>043-046>054-057>066-NYZ062>081-172300-
EAST


CITY           SKY/WX    TMP DP  RH WIND       PRES   REMARKS
ALBANY         MOSUNNY   66  46  48 W5        29.97S
GLENS FALLS    MOSUNNY   63  44  50 SW6       29.95R
POUGHKEEPSIE   MOSUNNY   70  42  36 W8        29.96R
MONTGOMERY     SUNNY     68  45  43 W3        29.97R
WHITE PLAINS   MOSUNNY   67  42  40 W3        29.97R
ISLIP          MOSUNNY   67  48  50 SW8       29.97R
NEW YORK CITY  MOSUNNY   72  43  35 NW9       29.96R
CENTRAL PARK   SUNNY     69  43  38 VRB5      29.99R
$$

NYZ005>009-017-018-044>046-055-056-172300-
CENTRAL


CITY           SKY/WX    TMP DP  RH WIND       PRES   REMARKS
FULTON         SUNNY     65  48  54 NW5       29.96S
SYRACUSE       MOSUNNY   67  44  43 S6        29.96S
ROME           SUNNY     64  45  49 W7        29.98S
ELMIRA         PTSUNNY   65  48  54 N5        29.97R
BINGHAMTON     MOSUNNY   63  43  48 CALM      29.99S
MONTICELLO     SUNNY     61  45  55 W3        30.00S
$$

NYZ026>034-041>043-172300-
NORTH


CITY           SKY/WX    TMP DP  RH WIND       PRES   REMARKS
WATERTOWN      MOSUNNY   63  47  55 SW6       29.95F
FORT DRUM      NOT AVBL
MASSENA        PTSUNNY   62  51  67 SW9       29.91F
SARANAC LAKE   CLOUDY    57  44  62 SW6       29.94S
PLATTSBURGH    CLOUDY    60  52  74 S3        29.91S
$$

NYZ001>004-010>016-019>021-172300-
WEST


CITY           SKY/WX    TMP DP  RH WIND       PRES   REMARKS
NIAGARA FALLS  PTSUNNY   65  47  52 SW14      29.96S
BUFFALO        MOSUNNY   64  47  53 W15       29.97S
DUNKIRK        SUNNY     64  49  57 W10G18    29.98F
JAMESTOWN      MOSUNNY   59  48  67 NW9       30.00S
WELLSVILLE     CLOUDY    59  46  62 W5        30.01R
ROCHESTER      MOSUNNY   67  43  41 W12       29.97R
PENN YAN       MOSUNNY   64  46  52 W5        29.98R
$$

             KEY
       WCI = WIND CHILL INDEX
       VSB = VISIBILITY
       HX  = HEAT INDEX
$$


USA.gov is the U.S. government's official web portal to all federal, state and local government web resources and services.